Home > Weather > Sarnia > Past weeks

Flag for Canada Weather for the Past 2 Weeks in Sarnia, Ontario, Canada

Now
46 °F

Scattered clouds.


Feels Like: 45 °F
Forecast: 36 / 60 °F
Wind: 3 mph from East

Location: Sarnia Airport

Current Time: May 3, 2016 at 10:25:08 AM

Latest Report: May 3, 2016 at 9:00 AM


Visibility: 9 mi

Pressure: 29.94 "Hg

Humidity: 76%

Dew Point: 39 °F

Location of SarniaLocation

Historic Weather in Sarnia — Graph

°F

Sarnia Temperature Yesterday

Maximum temperature yesterday: 50 °F (at 3:00 PM)
Minimum temperature yesterday: 41 °F (at 11:00 PM)
Average temperature yesterday: 46 °F

High & Low Weather Summary for the Past Weeks

 TemperatureHumidityPressure
High79 °F (Apr 18, 2:00 PM)100% (Apr 19, 6:00 AM)30.38 "Hg (Apr 19, 6:00 AM)
Low32 °F (Apr 20, 4:00 AM)13% (Apr 20, 5:00 PM)29.65 "Hg (Apr 26, 5:00 AM)
Average46 °F75%30.05 "Hg
* Reported Apr 18 9:00 AM — May 3 9:00 AM, Sarnia, Weather by CustomWeather, © 2016

Note: Actual official high and low records may vary slightly from our data, if they occured in-between our weather recording intervals... More about our weather records

Advertising

Sarnia Weather History for the Previous 24 Hours

Scroll right to see more
 ConditionsComfort  
Time TempWeatherWind HumidityBarometerVisibility
9:00 AM
Tue, May 3
46 °FScattered clouds.3 mph76%29.94 "Hg9 mi
8:00 AM45 °FOvercast.2 mph81%29.94 "Hg9 mi
7:00 AM41 °FMostly cloudy.3 mph93%29.96 "Hg9 mi
6:00 AM41 °FOvercast.3 mph87%29.95 "Hg9 mi
5:00 AM41 °FOvercast.2 mph87%29.95 "Hg9 mi
4:00 AM37 °FClear.2 mph100%29.96 "Hg9 mi
3:00 AM39 °FClear.No wind93%29.96 "Hg9 mi
2:00 AM39 °FClear.3 mph100%29.98 "Hg9 mi
1:00 AM41 °FPassing clouds.3 mph93%29.98 "Hg9 mi
12:00 AM41 °FClear.2 mph93%29.98 "Hg9 mi
11:00 PM
Mon, May 2
41 °FClear.2 mph93%29.99 "Hg9 mi
10:00 PM43 °FPassing clouds.2 mph87%30.00 "Hg9 mi
9:00 PM43 °FScattered clouds.3 mph87%30.01 "Hg9 mi
8:00 PM45 °FBroken clouds.7 mph81%30.01 "Hg9 mi
7:00 PM46 °FScattered clouds.7 mph76%30.01 "Hg9 mi
6:00 PM48 °FPartly sunny.13 mph71%30.03 "Hg9 mi
5:00 PM50 °FPartly sunny.12 mph67%30.04 "Hg9 mi
4:00 PM50 °FSunny.13 mph71%30.03 "Hg9 mi
3:00 PM50 °FSunny.12 mph76%30.04 "Hg9 mi
2:00 PM48 °FSunny.10 mph82%30.04 "Hg9 mi
1:00 PM46 °FOvercast.12 mph87%30.03 "Hg9 mi
12:00 PM48 °FOvercast.10 mph82%30.04 "Hg9 mi
11:02 AM46 °FCloudy.14 mph93%30.04 "Hg9 mi
11:00 AM46 °FMostly cloudy.14 mph87%30.04 "Hg9 mi
10:00 AM43 °FLow clouds.15 mph100%30.04 "Hg9 mi
Weather by CustomWeather, © 2016

See weather overviewHow to use our weather pages